Tracking 19176 objects as of 26-May-2018
HD Live streaming from Space Station
objects crossing your sky now

DMSP 5D-2 F14 DEB

Track DMSP 5D-2 F14 DEB now!
10-day predictions


NORAD ID: 24756
Int'l Code: 1997-012B
Perigee: 520.7 km
Apogee: 525.1 km
Inclination: 98.8 °
Period: 94.9 minutes
Semi major axis: 6893 km
RCS: 0.0487 m2 (small)
Launch date: April 4, 1997
Source: United States (US)
Launch site: AIR FORCE WESTERN TEST RANGE (AFWTR)

Note: This is SATELLITE DEBRIS
aabbcc
Your satellite tracking list
Your tracking list is empty




NASA's NSSDC Master Catalog

Two Line Element Set (TLE):
1 24756U 97012B   18145.45698503 +.00009310 +00000-0 +47888-3 0  9993
2 24756 098.8202 312.8601 0003203 332.0979 084.6871 15.16725696117659
Source of the keplerian elements: AFSPC